| time (UTC) | temp F | wind direction | speed knots | gust knots | rain 1hr in | rain 24hr in | rain mn in | humidity % | barometer mb |
| 20260508115733 | 46 | 47 | 5.2 | 7.0 | 0.00 | 0.02 | 0.02 | 89 | 1016.2 |
| 20260508115231 | 46 | 43 | 6.1 | 13.0 | 0.00 | 0.02 | 0.02 | 89 | 1016.2 |
| 20260508114727 | 46 | 58 | 3.5 | 8.7 | 0.00 | 0.02 | 0.02 | 89 | 1016.4 |
| 20260508114224 | 46 | 39 | 11.3 | 13.0 | 0.07 | 0.02 | 0.02 | 88 | 1016.5 |
| 20260508113720 | 46 | 45 | 5.2 | 12.2 | 0.07 | 0.02 | 0.02 | 88 | 1016.2 |
| 20260508113219 | 46 | 51 | 7.0 | 13.0 | 0.00 | 0.01 | 0.01 | 88 | 1016.4 |
| 20260508112715 | 46 | 36 | 9.6 | 13.9 | 0.00 | 0.01 | 0.01 | 88 | 1016.3 |
| 20260508112212 | 46 | 31 | 8.7 | 13.0 | 0.00 | 0.01 | 0.01 | 88 | 1016.3 |
| 20260508111709 | 46 | 42 | 4.3 | 7.0 | 0.07 | 0.01 | 0.01 | 88 | 1016.5 |
| 20260508111206 | 46 | 40 | 6.1 | 12.2 | 0.00 | 0.00 | 0.00 | 87 | 1016.2 |
| 20260508110703 | 46 | 30 | 8.7 | 16.5 | 0.00 | 0.00 | 0.00 | 86 | 1016.0 |
| 20260508110200 | 46 | 38 | 11.3 | 13.0 | 0.00 | 0.00 | 0.00 | 86 | 1016.0 |
| 20260508105700 | 47 | 60 | 9.6 | 13.9 | 0.00 | 0.00 | 0.00 | 85 | 1016.0 |
| 20260508105157 | 47 | 37 | 6.1 | 9.6 | 0.00 | 0.00 | 0.00 | 85 | 1016.2 |
| 20260508104655 | 47 | 31 | 9.6 | 12.2 | 0.00 | 0.00 | 0.00 | 84 | 1015.9 |
| 20260508104151 | 47 | 51 | 7.8 | 15.6 | 0.00 | 0.00 | 0.00 | 84 | 1016.1 |
| 20260508103648 | 47 | 33 | 7.8 | 12.2 | 0.00 | 0.00 | 0.00 | 83 | 1016.0 |
| 20260508103146 | 47 | 67 | 3.5 | 12.2 | 0.00 | 0.00 | 0.00 | 83 | 1016.2 |
| 20260508102643 | 47 | 34 | 6.1 | 9.6 | 0.00 | 0.00 | 0.00 | 83 | 1016.0 |
| 20260508102141 | 46 | 33 | 11.3 | 20.0 | 0.00 | 0.00 | 0.00 | 83 | 1016.1 |
| 20260508101638 | 47 | 40 | 12.2 | 15.6 | 0.00 | 0.00 | 0.00 | 83 | 1016.0 |
| 20260508101135 | 47 | 54 | 6.1 | 9.6 | 0.00 | 0.00 | 0.00 | 83 | 1016.2 |
| 20260508100632 | 47 | 71 | 1.7 | 7.0 | 0.00 | 0.00 | 0.00 | 84 | 1016.0 |
| 20260508100131 | 47 | 30 | 7.8 | 9.6 | 0.00 | 0.00 | 0.00 | 84 | 1016.0 |
| 20260508095627 | 46 | 85 | 3.5 | 9.6 | 0.00 | 0.00 | 0.00 | 83 | 1016.0 |
| 20260508095124 | 46 | 40 | 5.2 | 9.6 | 0.00 | 0.00 | 0.00 | 83 | 1016.0 |
| 20260508094621 | 46 | 53 | 8.7 | 11.3 | 0.00 | 0.00 | 0.00 | 83 | 1015.8 |
| 20260508094117 | 46 | 39 | 12.2 | 13.0 | 0.00 | 0.00 | 0.00 | 83 | 1016.2 |
| 20260508093615 | 46 | 55 | 3.5 | 14.8 | 0.00 | 0.00 | 0.00 | 84 | 1016.0 |
| 20260508093113 | 46 | 21 | 4.3 | 12.2 | 0.00 | 0.00 | 0.00 | 84 | 1015.8 |
| 20260508092609 | 46 | 42 | 9.6 | 13.0 | 0.00 | 0.00 | 0.00 | 84 | 1015.6 |
| 20260508092108 | 46 | 52 | 4.3 | 7.8 | 0.00 | 0.00 | 0.00 | 84 | 1015.9 |
| 20260508091605 | 46 | 76 | 3.5 | 12.2 | 0.00 | 0.00 | 0.00 | 84 | 1015.7 |
| 20260508091101 | 47 | 39 | 7.0 | 13.0 | 0.00 | 0.00 | 0.00 | 83 | 1015.9 |
| 20260508090600 | 47 | 40 | 5.2 | 11.3 | 0.00 | 0.00 | 0.00 | 83 | 1015.8 |
| 20260508090056 | 47 | 94 | 6.1 | 7.8 | 0.00 | 0.00 | 0.00 | 83 | 1015.7 |
| 20260508085552 | 47 | 61 | 5.2 | 9.6 | 0.00 | 0.00 | 0.00 | 83 | 1015.7 |
| 20260508085050 | 47 | 77 | 4.3 | 13.0 | 0.00 | 0.00 | 0.00 | 83 | 1015.6 |
| 20260508084547 | 47 | 32 | 3.5 | 6.1 | 0.00 | 0.00 | 0.00 | 83 | 1015.7 |
| 20260508084044 | 47 | 44 | 3.5 | 8.7 | 0.00 | 0.00 | 0.00 | 83 | 1015.7 |
| 20260508083541 | 47 | 54 | 6.1 | 8.7 | 0.00 | 0.00 | 0.00 | 83 | 1015.6 |
| 20260508083038 | 47 | 64 | 6.1 | 8.7 | 0.00 | 0.00 | 0.00 | 82 | 1015.7 |
| 20260508082534 | 47 | 39 | 7.8 | 13.9 | 0.00 | 0.00 | 0.00 | 82 | 1015.6 |
| 20260508082031 | 47 | 64 | 4.3 | 8.7 | 0.00 | 0.00 | 0.00 | 83 | 1015.8 |
| 20260508081529 | 47 | 48 | 7.0 | 12.2 | 0.00 | 0.00 | 0.00 | 83 | 1015.6 |
| 20260508081024 | 47 | 47 | 7.8 | 12.2 | 0.00 | 0.00 | 0.00 | 83 | 1015.3 |
| 20260508080522 | 47 | 56 | 1.7 | 13.9 | 0.00 | 0.00 | 0.00 | 84 | 1015.7 |
| 20260508080020 | 47 | 70 | 4.3 | 9.6 | 0.00 | 0.00 | 0.00 | 83 | 1015.6 |
| 20260508075516 | 47 | 47 | 3.5 | 5.2 | 0.00 | 0.00 | 0.00 | 84 | 1015.6 |
| 20260508075014 | 46 | 73 | 6.1 | 8.7 | 0.00 | 0.00 | 0.00 | 84 | 1015.4 |
| 20260508074511 | 46 | 50 | 4.3 | 9.6 | 0.00 | 0.00 | 0.00 | 84 | 1015.6 |
| 20260508074008 | 46 | 36 | 7.0 | 12.2 | 0.00 | 0.00 | 0.00 | 84 | 1015.5 |
| 20260508073505 | 46 | 75 | 3.5 | 11.3 | 0.00 | 0.00 | 0.00 | 85 | 1015.4 |
| 20260508073003 | 46 | 51 | 5.2 | 14.8 | 0.00 | 0.00 | 0.00 | 85 | 1015.3 |
| 20260508072458 | 46 | 47 | 3.5 | 13.0 | 0.00 | 0.00 | 0.00 | 85 | 1015.5 |
| 20260508071955 | 46 | 83 | 3.5 | 9.6 | 0.00 | 0.00 | 0.00 | 85 | 1015.4 |
| 20260508071454 | 46 | 63 | 3.5 | 8.7 | 0.00 | 0.00 | 0.00 | 85 | 1015.5 |
| 20260508070951 | 46 | 37 | 4.3 | 12.2 | 0.00 | 0.00 | 0.00 | 85 | 1015.4 |
| 20260508070449 | 46 | 98 | 4.3 | 12.2 | 0.00 | 0.00 | 0.00 | 85 | 1015.4 |
| 20260508065946 | 46 | 41 | 4.3 | 11.3 | 0.00 | 0.00 | 0.00 | 86 | 1015.4 |
| 20260508065444 | 46 | 47 | 8.7 | 13.0 | 0.00 | 0.00 | 0.00 | 86 | 1015.4 |
| 20260508064942 | 46 | 43 | 6.1 | 11.3 | 0.00 | 0.00 | 0.00 | 87 | 1015.4 |
| 20260508064439 | 46 | 63 | 5.2 | 7.8 | 0.00 | 0.00 | 0.00 | 87 | 1015.2 |
| 20260508063937 | 46 | 44 | 11.3 | 13.9 | 0.00 | 0.00 | 0.00 | 88 | 1015.3 |
| 20260508063434 | 46 | 45 | 3.5 | 5.2 | 0.00 | 0.00 | 0.00 | 89 | 1015.3 |
| 20260508062932 | 46 | 76 | 4.3 | 12.2 | 0.00 | 0.00 | 0.00 | 90 | 1015.2 |
| 20260508062429 | 46 | 60 | 3.5 | 6.1 | 0.00 | 0.00 | 0.00 | 89 | 1015.2 |
| 20260508061926 | 46 | 37 | 2.6 | 6.1 | 0.00 | 0.00 | 0.00 | 89 | 1015.3 |
| 20260508061424 | 46 | 67 | 4.3 | 8.7 | 0.00 | 0.00 | 0.00 | 90 | 1015.3 |
| 20260508060919 | 46 | 39 | 4.3 | 7.0 | 0.00 | 0.00 | 0.00 | 91 | 1015.0 |
| 20260508060417 | 46 | 65 | 4.3 | 8.7 | 0.00 | 0.00 | 0.00 | 91 | 1015.1 |
| 20260508055913 | 45 | 56 | 4.3 | 13.9 | 0.00 | 0.00 | 0.00 | 92 | 1015.1 |
| 20260508055410 | 45 | 54 | 5.2 | 9.6 | 0.00 | 0.00 | 0.00 | 93 | 1015.1 |
| 20260508054906 | 45 | 37 | 8.7 | 13.9 | 0.00 | 0.00 | 0.00 | 93 | 1015.0 |
| 20260508054404 | 45 | 46 | 4.3 | 8.7 | 0.00 | 0.00 | 0.00 | 94 | 1015.0 |
| 20260508053900 | 45 | 39 | 4.3 | 7.0 | 0.00 | 0.00 | 0.00 | 94 | 1014.8 |
| 20260508053358 | 45 | 35 | 4.3 | 7.8 | 0.00 | 0.00 | 0.00 | 95 | 1014.9 |
| 20260508052855 | 45 | 32 | 10.4 | 13.9 | 0.00 | 0.00 | 0.00 | 95 | 1015.1 |
| 20260508052353 | 45 | 27 | 8.7 | 12.2 | 0.00 | 0.00 | 0.00 | 95 | 1015.0 |
| 20260508051849 | 45 | 29 | 9.6 | 13.0 | 0.00 | 0.00 | 0.00 | 95 | 1014.8 |
| 20260508051344 | 45 | 26 | 14.8 | 16.5 | 0.00 | 0.00 | 0.00 | 94 | 1014.8 |
| 20260508050841 | 45 | 30 | 13.0 | 14.8 | 0.00 | 0.00 | 0.00 | 94 | 1014.9 |
| 20260508050338 | 45 | 35 | 9.6 | 11.3 | 0.00 | 0.00 | 0.00 | 93 | 1014.9 |
| 20260508045833 | 45 | 43 | 8.7 | 18.2 | 0.00 | 0.00 | 0.00 | 93 | 1014.7 |
| 20260508045331 | 45 | 25 | 11.3 | 13.9 | 0.00 | 0.00 | 0.00 | 94 | 1015.1 |
| 20260508044829 | 45 | 81 | 2.6 | 11.3 | 0.00 | 0.00 | 0.00 | 95 | 1014.9 |
| 20260508044325 | 45 | 29 | 9.6 | 13.9 | 0.00 | 0.00 | 0.00 | 95 | 1014.9 |
| 20260508043821 | 45 | 30 | 7.8 | 8.7 | 0.00 | 0.00 | 0.00 | 95 | 1014.9 |
| 20260508043319 | 45 | 38 | 9.6 | 12.2 | 0.00 | 0.00 | 0.00 | 95 | 1014.7 |
| 20260508042815 | 45 | 38 | 9.6 | 13.9 | 0.00 | 0.00 | 0.00 | 95 | 1014.5 |
| 20260508042313 | 45 | 28 | 11.3 | 13.0 | 0.00 | 0.00 | 0.00 | 95 | 1014.4 |
| 20260508041810 | 45 | 49 | 7.0 | 8.7 | 0.00 | 0.00 | 0.00 | 95 | 1014.6 |
| 20260508041306 | 45 | 31 | 4.3 | 7.8 | 0.00 | 0.00 | 0.00 | 95 | 1014.5 |
| 20260508040802 | 45 | 32 | 9.6 | 13.0 | 0.00 | 0.00 | 0.00 | 95 | 1014.5 |
| 20260508040300 | 45 | 37 | 5.2 | 12.2 | 0.00 | 0.00 | 0.00 | 95 | 1014.3 |
| 20260508035757 | 45 | 23 | 13.9 | 15.6 | 0.00 | 0.00 | 0.00 | 95 | 1014.5 |
| 20260508035255 | 45 | 42 | 8.7 | 12.2 | 0.00 | 0.00 | 0.00 | 95 | 1014.4 |
| 20260508034751 | 46 | 31 | 12.2 | 14.8 | 0.00 | 0.00 | 0.00 | 95 | 1014.4 |
| 20260508034248 | 46 | 34 | 7.0 | 14.8 | 0.00 | 0.00 | 0.00 | 95 | 1014.5 |
| 20260508033745 | 46 | 24 | 8.7 | 13.0 | 0.00 | 0.00 | 0.00 | 95 | 1014.4 |
| 20260508033243 | 46 | 40 | 7.8 | 13.0 | 0.00 | 0.00 | 0.00 | 95 | 1014.4 |
| 20260508032741 | 46 | 29 | 8.7 | 13.0 | 0.00 | 0.00 | 0.00 | 95 | 1014.4 |
| 20260508032238 | 46 | 54 | 7.8 | 12.2 | 0.00 | 0.00 | 0.00 | 95 | 1014.2 |
| 20260508031734 | 46 | 52 | 3.5 | 12.2 | 0.00 | 0.00 | 0.00 | 95 | 1014.4 |
| 20260508031231 | 46 | 34 | 7.0 | 11.3 | 0.00 | 0.00 | 0.00 | 95 | 1014.2 |
| 20260508030727 | 46 | 39 | 6.1 | 12.2 | 0.00 | 0.00 | 0.00 | 95 | 1014.1 |
| 20260508030225 | 46 | 39 | 8.7 | 13.9 | 0.00 | 0.00 | 0.00 | 95 | 1014.3 |
| 20260508025721 | 46 | 32 | 11.3 | 13.0 | 0.00 | 0.00 | 0.00 | 95 | 1014.3 |
| 20260508025219 | 46 | 17 | 7.0 | 11.3 | 0.00 | 0.00 | 0.00 | 95 | 1014.2 |
| 20260508024714 | 46 | 28 | 7.0 | 9.6 | 0.00 | 0.00 | 0.00 | 95 | 1014.1 |
| 20260508024212 | 46 | 27 | 12.2 | 13.0 | 0.00 | 0.00 | 0.00 | 96 | 1014.0 |
| 20260508023707 | 46 | 27 | 8.7 | 13.0 | 0.00 | 0.00 | 0.00 | 96 | 1014.0 |
| 20260508023206 | 46 | 36 | 6.1 | 9.6 | 0.00 | 0.00 | 0.00 | 96 | 1014.0 |
| 20260508022701 | 46 | 27 | 10.4 | 12.2 | 0.00 | 0.00 | 0.00 | 96 | 1013.7 |
| 20260508022158 | 46 | 30 | 8.7 | 13.0 | 0.00 | 0.00 | 0.00 | 96 | 1013.7 |
| 20260508021654 | 46 | 28 | 11.3 | 13.0 | 0.00 | 0.00 | 0.00 | 96 | 1014.0 |
| 20260508021150 | 46 | 29 | 7.8 | 9.6 | 0.00 | 0.00 | 0.00 | 96 | 1014.0 |
| 20260508020648 | 46 | 31 | 7.0 | 9.6 | 0.00 | 0.00 | 0.00 | 96 | 1014.0 |
| 20260508020145 | 46 | 38 | 4.3 | 7.8 | 0.00 | 0.00 | 0.00 | 96 | 1013.9 |
| 20260508015642 | 46 | 60 | 7.0 | 9.6 | 0.00 | 0.00 | 0.00 | 96 | 1013.7 |
| 20260508015139 | 46 | 48 | 4.3 | 8.7 | 0.00 | 0.00 | 0.00 | 96 | 1013.9 |
| 20260508014636 | 46 | 48 | 3.5 | 9.6 | 0.00 | 0.00 | 0.00 | 96 | 1013.9 |
| 20260508014132 | 46 | 44 | 3.5 | 7.8 | 0.00 | 0.00 | 0.00 | 96 | 1013.7 |
| 20260508013628 | 46 | 45 | 5.2 | 7.8 | 0.00 | 0.00 | 0.00 | 96 | 1013.9 |
| 20260508013125 | 46 | 33 | 5.2 | 8.7 | 0.00 | 0.00 | 0.00 | 96 | 1013.8 |
| 20260508012623 | 47 | 46 | 6.1 | 11.3 | 0.00 | 0.00 | 0.00 | 96 | 1013.8 |
| 20260508012120 | 47 | 26 | 7.0 | 7.8 | 0.00 | 0.00 | 0.00 | 95 | 1013.7 |
| 20260508011618 | 47 | 34 | 7.0 | 8.7 | 0.00 | 0.00 | 0.00 | 95 | 1013.8 |
| 20260508011115 | 47 | 26 | 7.0 | 8.7 | 0.00 | 0.00 | 0.00 | 95 | 1013.9 |
| 20260508010612 | 47 | 29 | 7.0 | 11.3 | 0.00 | 0.00 | 0.00 | 95 | 1013.8 |
| 20260508010110 | 47 | 38 | 8.7 | 12.2 | 0.00 | 0.00 | 0.00 | 95 | 1013.7 |
| 20260508005606 | 47 | 40 | 6.1 | 11.3 | 0.00 | 0.00 | 0.00 | 95 | 1013.5 |
| 20260508005102 | 47 | 22 | 8.7 | 11.3 | 0.00 | 0.00 | 0.00 | 95 | 1013.6 |
| 20260508004558 | 47 | 20 | 7.8 | 9.6 | 0.00 | 0.00 | 0.00 | 96 | 1013.8 |
| 20260508004055 | 47 | 21 | 7.8 | 9.6 | 0.00 | 0.00 | 0.00 | 96 | 1013.7 |
| 20260508003552 | 47 | 34 | 7.0 | 9.6 | 0.00 | 0.00 | 0.00 | 96 | 1013.8 |
| 20260508003050 | 47 | 37 | 7.8 | 12.2 | 0.00 | 0.00 | 0.00 | 96 | 1013.8 |
| 20260508002545 | 47 | 19 | 6.1 | 8.7 | 0.00 | 0.00 | 0.00 | 96 | 1013.8 |
| 20260508002043 | 47 | 25 | 8.7 | 12.2 | 0.00 | 0.00 | 0.00 | 96 | 1013.6 |
| 20260508001538 | 47 | 31 | 8.7 | 9.6 | 0.00 | 0.00 | 0.00 | 96 | 1013.8 |
| 20260508001035 | 47 | 27 | 8.7 | 11.3 | 0.00 | 0.00 | 0.00 | 96 | 1013.8 |
| 20260508000531 | 47 | 26 | 8.7 | 9.6 | 0.00 | 0.00 | 0.00 | 96 | 1013.9 |
| 20260508000029 | 47 | 31 | 6.1 | 8.7 | 0.00 | 0.00 | 0.00 | 96 | 1013.8 |
| 20260507235525 | 47 | 18 | 5.2 | 8.7 | 0.00 | 0.00 | 0.00 | 96 | 1013.6 |
| 20260507235023 | 47 | 22 | 6.1 | 7.0 | 0.00 | 0.00 | 0.00 | 96 | 1013.8 |
| 20260507234519 | 47 | 16 | 6.1 | 7.8 | 0.00 | 0.00 | 0.00 | 96 | 1013.6 |
| 20260507234015 | 47 | 29 | 7.8 | 11.3 | 0.00 | 0.00 | 0.00 | 96 | 1013.6 |
| 20260507233512 | 47 | 24 | 5.2 | 9.6 | 0.00 | 0.00 | 0.00 | 96 | 1013.4 |
| 20260507233011 | 47 | 25 | 7.8 | 9.6 | 0.00 | 0.00 | 0.00 | 96 | 1013.3 |
| 20260507232507 | 47 | 29 | 7.8 | 8.7 | 0.00 | 0.00 | 0.00 | 96 | 1013.3 |
| 20260507232004 | 47 | 34 | 4.3 | 7.0 | 0.00 | 0.00 | 0.00 | 96 | 1013.4 |
| 20260507231500 | 47 | 25 | 9.6 | 11.3 | 0.00 | 0.00 | 0.00 | 96 | 1013.2 |
| 20260507230958 | 47 | 31 | 8.7 | 9.6 | 0.00 | 0.00 | 0.00 | 96 | 1013.3 |
| 20260507230454 | 47 | 22 | 8.7 | 11.3 | 0.00 | 0.00 | 0.00 | 96 | 1013.2 |
| 20260507225949 | 47 | 23 | 4.3 | 7.8 | 0.00 | 0.00 | 0.00 | 96 | 1013.2 |
| 20260507225446 | 47 | 22 | 9.6 | 11.3 | 0.00 | 0.00 | 0.00 | 96 | 1013.2 |
| 20260507224942 | 47 | 32 | 7.8 | 11.3 | 0.00 | 0.00 | 0.00 | 96 | 1013.2 |
| 20260507224438 | 47 | 11 | 7.0 | 12.2 | 0.00 | 0.00 | 0.00 | 96 | 1013.3 |
| 20260507223935 | 47 | 23 | 7.0 | 7.8 | 0.00 | 0.00 | 0.00 | 95 | 1013.4 |
| 20260507223431 | 47 | 18 | 5.2 | 9.6 | 0.00 | 0.00 | 0.00 | 95 | 1013.3 |
| 20260507222928 | 47 | 20 | 7.0 | 7.0 | 0.00 | 0.00 | 0.00 | 95 | 1013.4 |
| 20260507222425 | 47 | 31 | 8.7 | 9.6 | 0.00 | 0.00 | 0.00 | 95 | 1013.1 |
| 20260507221922 | 47 | 27 | 8.7 | 8.7 | 0.00 | 0.00 | 0.00 | 96 | 1013.2 |
| 20260507221418 | 47 | 31 | 7.0 | 7.8 | 0.00 | 0.00 | 0.00 | 96 | 1013.3 |
| 20260507220914 | 47 | 5 | 7.8 | 8.7 | 0.00 | 0.00 | 0.00 | 95 | 1013.1 |
| 20260507220412 | 47 | 23 | 6.1 | 12.2 | 0.00 | 0.00 | 0.00 | 95 | 1013.0 |
| 20260507215908 | 47 | 29 | 7.0 | 9.6 | 0.00 | 0.00 | 0.00 | 95 | 1013.0 |
| 20260507215405 | 48 | 11 | 7.8 | 8.7 | 0.00 | 0.00 | 0.00 | 95 | 1013.1 |
| 20260507214903 | 48 | 8 | 6.1 | 7.8 | 0.00 | 0.00 | 0.00 | 95 | 1013.2 |
| 20260507214400 | 48 | 18 | 7.0 | 11.3 | 0.00 | 0.00 | 0.00 | 95 | 1013.2 |
| 20260507213855 | 48 | 41 | 7.8 | 9.6 | 0.00 | 0.00 | 0.00 | 95 | 1012.9 |
| 20260507213352 | 48 | 28 | 6.1 | 9.6 | 0.00 | 0.00 | 0.00 | 95 | 1013.0 |
| 20260507212849 | 48 | 9 | 7.0 | 8.7 | 0.00 | 0.00 | 0.00 | 95 | 1013.2 |
| 20260507212345 | 48 | 9 | 7.0 | 7.0 | 0.00 | 0.00 | 0.00 | 94 | 1013.0 |
| 20260507211842 | 48 | 20 | 7.8 | 11.3 | 0.00 | 0.00 | 0.00 | 94 | 1013.0 |
| 20260507211339 | 48 | 16 | 7.8 | 9.6 | 0.00 | 0.00 | 0.00 | 94 | 1013.0 |
| 20260507210835 | 48 | 15 | 6.1 | 8.7 | 0.00 | 0.00 | 0.00 | 94 | 1012.8 |
| 20260507210333 | 48 | 28 | 9.6 | 9.6 | 0.00 | 0.00 | 0.00 | 94 | 1012.8 |
| 20260507205829 | 48 | 21 | 6.1 | 7.8 | 0.00 | 0.17 | 0.17 | 94 | 1012.6 |
| 20260507205326 | 48 | 34 | 7.0 | 8.7 | 0.00 | 0.17 | 0.17 | 95 | 1012.5 |
| 20260507204822 | 48 | 27 | 7.8 | 11.3 | 0.00 | 0.17 | 0.17 | 95 | 1012.4 |
| 20260507204320 | 48 | 12 | 7.8 | 9.6 | 0.00 | 0.17 | 0.17 | 95 | 1012.3 |
| 20260507203817 | 48 | 17 | 6.1 | 7.8 | 0.00 | 0.17 | 0.17 | 95 | 1012.5 |
| 20260507203315 | 48 | 17 | 7.8 | 8.7 | 0.00 | 0.17 | 0.17 | 95 | 1012.4 |
| 20260507202811 | 48 | 29 | 6.1 | 9.6 | 0.00 | 0.17 | 0.17 | 95 | 1012.4 |
| 20260507202307 | 48 | 16 | 7.8 | 11.3 | 0.00 | 0.17 | 0.17 | 95 | 1012.2 |
| 20260507201802 | 48 | 21 | 8.7 | 11.3 | 0.00 | 0.17 | 0.17 | 95 | 1012.2 |
| 20260507201259 | 48 | 14 | 7.8 | 8.7 | 0.00 | 0.17 | 0.17 | 95 | 1012.4 |
| 20260507200755 | 48 | 14 | 7.8 | 8.7 | 0.00 | 0.17 | 0.17 | 95 | 1012.3 |
| 20260507200251 | 48 | 357 | 8.7 | 12.2 | 0.00 | 0.17 | 0.17 | 95 | 1012.1 |
| 20260507195747 | 48 | 19 | 8.7 | 9.6 | 0.00 | 0.17 | 0.17 | 95 | 1012.2 |
| 20260507195245 | 48 | 36 | 5.2 | 7.0 | 0.00 | 0.17 | 0.17 | 95 | 1011.9 |
| 20260507194742 | 48 | 23 | 8.7 | 12.2 | 0.00 | 0.17 | 0.17 | 95 | 1011.9 |
| 20260507194238 | 48 | 23 | 6.1 | 9.6 | 0.00 | 0.17 | 0.17 | 95 | 1011.9 |
| 20260507193735 | 48 | 20 | 8.7 | 13.0 | 0.00 | 0.17 | 0.17 | 95 | 1011.7 |
| 20260507193231 | 48 | 13 | 9.6 | 12.2 | 0.00 | 0.17 | 0.17 | 95 | 1011.8 |
| 20260507192728 | 48 | 13 | 9.6 | 13.0 | 0.00 | 0.17 | 0.17 | 95 | 1011.9 |
| 20260507192224 | 48 | 13 | 7.8 | 14.8 | 0.00 | 0.17 | 0.17 | 95 | 1011.9 |
| 20260507191720 | 48 | 31 | 7.8 | 14.8 | 0.00 | 0.17 | 0.17 | 95 | 1011.7 |
| 20260507191218 | 48 | 10 | 9.6 | 11.3 | 0.00 | 0.17 | 0.17 | 95 | 1011.6 |
| 20260507190714 | 48 | 7 | 9.6 | 13.0 | 0.00 | 0.17 | 0.17 | 95 | 1011.8 |
| 20260507190213 | 49 | 15 | 10.4 | 12.2 | 0.00 | 0.17 | 0.17 | 95 | 1011.5 |
| 20260507185711 | 49 | 2 | 8.7 | 9.6 | 0.00 | 0.17 | 0.17 | 95 | 1011.7 |
| 20260507185208 | 49 | 2 | 8.7 | 11.3 | 0.00 | 0.17 | 0.17 | 95 | 1011.7 |
| 20260507184705 | 49 | 18 | 9.6 | 11.3 | 0.00 | 0.17 | 0.17 | 94 | 1011.2 |
| 20260507184203 | 49 | 12 | 6.1 | 11.3 | 0.00 | 0.17 | 0.17 | 95 | 1011.3 |
| 20260507183659 | 49 | 5 | 9.6 | 9.6 | 0.00 | 0.17 | 0.17 | 94 | 1011.3 |
| 20260507183156 | 49 | 1 | 7.8 | 8.7 | 0.00 | 0.17 | 0.17 | 94 | 1011.2 |
| 20260507182654 | 49 | 2 | 7.0 | 11.3 | 0.00 | 0.17 | 0.17 | 94 | 1011.4 |
| 20260507182149 | 49 | 6 | 8.7 | 11.3 | 0.00 | 0.17 | 0.17 | 94 | 1011.1 |
| 20260507181646 | 49 | 5 | 7.8 | 13.0 | 0.00 | 0.17 | 0.17 | 95 | 1011.1 |
| 20260507181142 | 49 | 10 | 7.0 | 9.6 | 0.00 | 0.17 | 0.17 | 94 | 1011.1 |
| 20260507180638 | 49 | 351 | 6.1 | 7.8 | 0.00 | 0.17 | 0.17 | 94 | 1010.9 |
| 20260507180136 | 50 | 355 | 6.1 | 7.8 | 0.00 | 0.17 | 0.17 | 94 | 1011.0 |
| 20260507175631 | 50 | 7 | 4.3 | 6.1 | 0.00 | 0.17 | 0.17 | 94 | 1011.0 |
| 20260507175129 | 50 | 346 | 8.7 | 9.6 | 0.00 | 0.17 | 0.17 | 94 | 1010.6 |
| 20260507174626 | 50 | 5 | 7.0 | 8.7 | 0.00 | 0.17 | 0.17 | 94 | 1010.7 |
| 20260507174124 | 50 | 13 | 7.0 | 8.7 | 0.00 | 0.17 | 0.17 | 94 | 1010.6 |
| 20260507173621 | 50 | 359 | 6.1 | 8.7 | 0.00 | 0.17 | 0.17 | 94 | 1010.5 |
| 20260507173118 | 50 | 348 | 8.7 | 8.7 | 0.00 | 0.17 | 0.17 | 93 | 1010.6 |
| 20260507172614 | 50 | 7 | 7.8 | 8.7 | 0.00 | 0.17 | 0.17 | 93 | 1010.8 |
| 20260507172111 | 50 | 0 | 7.0 | 7.8 | 0.00 | 0.17 | 0.17 | 93 | 1010.8 |
| 20260507171606 | 50 | 349 | 4.3 | 7.8 | 0.00 | 0.17 | 0.17 | 93 | 1010.5 |
| 20260507171103 | 50 | 3 | 6.1 | 8.7 | 0.00 | 0.17 | 0.17 | 93 | 1010.5 |
| 20260507170600 | 50 | 1 | 7.8 | 7.8 | 0.00 | 0.17 | 0.17 | 93 | 1010.5 |
| 20260507170057 | 50 | 1 | 6.1 | 9.6 | 0.00 | 0.17 | 0.17 | 92 | 1010.3 |
| 20260507165553 | 50 | 352 | 5.2 | 9.6 | 0.00 | 0.17 | 0.17 | 92 | 1010.4 |
| 20260507165049 | 50 | 347 | 4.3 | 9.6 | 0.00 | 0.17 | 0.17 | 92 | 1010.3 |
| 20260507164546 | 50 | 346 | 6.1 | 9.6 | 0.00 | 0.17 | 0.17 | 92 | 1010.2 |
| 20260507164043 | 50 | 335 | 7.0 | 11.3 | 0.00 | 0.17 | 0.17 | 92 | 1010.0 |
| 20260507163540 | 50 | 343 | 8.7 | 11.3 | 0.00 | 0.17 | 0.17 | 92 | 1010.1 |
| 20260507163038 | 50 | 6 | 8.7 | 11.3 | 0.00 | 0.17 | 0.17 | 92 | 1009.6 |
| 20260507162532 | 50 | 336 | 6.1 | 11.3 | 0.00 | 0.17 | 0.17 | 91 | 1009.6 |
| 20260507162029 | 50 | 357 | 9.6 | 11.3 | 0.00 | 0.17 | 0.17 | 91 | 1009.9 |
| 20260507161526 | 50 | 343 | 10.4 | 13.9 | 0.00 | 0.17 | 0.17 | 91 | 1010.0 |
| 20260507161023 | 50 | 1 | 9.6 | 13.0 | 0.00 | 0.17 | 0.17 | 91 | 1009.7 |
| 20260507160519 | 50 | 348 | 8.7 | 11.3 | 0.00 | 0.17 | 0.17 | 91 | 1009.6 |
| 20260507160015 | 50 | 323 | 7.8 | 9.6 | 0.00 | 0.17 | 0.17 | 92 | 1009.6 |
| 20260507155510 | 50 | 334 | 7.8 | 9.6 | 0.00 | 0.17 | 0.17 | 91 | 1009.5 |
| 20260507155008 | 50 | 4 | 9.6 | 11.3 | 0.00 | 0.17 | 0.17 | 91 | 1009.4 |
| 20260507154504 | 50 | 337 | 7.0 | 11.3 | 0.00 | 0.17 | 0.17 | 91 | 1009.7 |
| 20260507154001 | 50 | 357 | 7.0 | 12.2 | 0.00 | 0.17 | 0.17 | 91 | 1009.5 |
| 20260507153458 | 50 | 349 | 8.7 | 13.0 | 0.00 | 0.17 | 0.17 | 91 | 1009.7 |
| 20260507152954 | 50 | 327 | 5.2 | 9.6 | 0.00 | 0.17 | 0.17 | 91 | 1009.4 |
| 20260507152451 | 50 | 339 | 7.8 | 9.6 | 0.00 | 0.17 | 0.17 | 91 | 1009.6 |
| 20260507151947 | 51 | 339 | 8.7 | 11.3 | 0.00 | 0.17 | 0.17 | 91 | 1009.5 |
| 20260507151443 | 51 | 327 | 7.8 | 12.2 | 0.00 | 0.17 | 0.17 | 91 | 1009.3 |
| 20260507150940 | 51 | 307 | 9.6 | 11.3 | 0.00 | 0.17 | 0.17 | 91 | 1009.3 |
| 20260507150437 | 51 | 340 | 7.8 | 9.6 | 0.00 | 0.17 | 0.17 | 90 | 1009.2 |
| 20260507145933 | 51 | 334 | 7.0 | 13.9 | 0.00 | 0.17 | 0.17 | 91 | 1009.2 |
| 20260507145429 | 52 | 321 | 9.6 | 13.9 | 0.00 | 0.17 | 0.17 | 90 | 1009.2 |
| 20260507144926 | 53 | 336 | 7.8 | 12.2 | 0.00 | 0.17 | 0.17 | 89 | 1009.1 |
| 20260507144423 | 53 | 311 | 9.6 | 11.3 | 0.00 | 0.17 | 0.17 | 88 | 1009.1 |
| 20260507143920 | 54 | 329 | 7.0 | 13.9 | 0.00 | 0.17 | 0.17 | 87 | 1009.2 |
| 20260507143418 | 55 | 310 | 11.3 | 13.9 | 0.00 | 0.17 | 0.17 | 87 | 1009.0 |
| 20260507142914 | 55 | 333 | 7.0 | 13.0 | 0.00 | 0.17 | 0.17 | 86 | 1008.7 |
| 20260507142410 | 56 | 324 | 8.7 | 12.2 | 0.00 | 0.17 | 0.17 | 85 | 1008.8 |
| 20260507141907 | 56 | 327 | 8.7 | 13.0 | 0.00 | 0.17 | 0.17 | 85 | 1008.8 |
| 20260507141403 | 57 | 300 | 8.7 | 14.8 | 0.00 | 0.17 | 0.17 | 82 | 1008.5 |
| 20260507140900 | 57 | 303 | 9.6 | 12.2 | 0.00 | 0.17 | 0.17 | 83 | 1008.5 |
| 20260507140357 | 57 | 342 | 7.8 | 11.3 | 0.00 | 0.17 | 0.17 | 84 | 1008.4 |
| 20260507135855 | 57 | 335 | 7.0 | 12.2 | 0.00 | 0.17 | 0.17 | 84 | 1008.3 |
| 20260507135351 | 58 | 349 | 7.8 | 11.3 | 0.00 | 0.17 | 0.17 | 84 | 1008.3 |
| 20260507134849 | 57 | 332 | 7.0 | 9.6 | 0.00 | 0.17 | 0.17 | 84 | 1008.4 |
| 20260507134345 | 58 | 356 | 8.7 | 11.3 | 0.00 | 0.17 | 0.17 | 84 | 1008.2 |
| 20260507133841 | 59 | 358 | 9.6 | 13.0 | 0.00 | 0.17 | 0.17 | 82 | 1007.9 |
| 20260507133336 | 60 | 339 | 10.4 | 13.9 | 0.00 | 0.17 | 0.17 | 79 | 1008.1 |
| 20260507132835 | 62 | 358 | 8.7 | 13.0 | 0.00 | 0.17 | 0.17 | 78 | 1008.1 |
| 20260507132331 | 61 | 14 | 7.0 | 8.7 | 0.00 | 0.17 | 0.17 | 79 | 1008.0 |
| 20260507131829 | 61 | 357 | 7.0 | 8.7 | 0.00 | 0.17 | 0.17 | 79 | 1007.9 |
| 20260507131325 | 61 | 357 | 8.7 | 9.6 | 0.00 | 0.17 | 0.17 | 79 | 1008.0 |
| 20260507130822 | 62 | 322 | 6.1 | 8.7 | 0.00 | 0.17 | 0.17 | 78 | 1007.8 |
| 20260507130319 | 62 | 341 | 6.1 | 8.7 | 0.00 | 0.17 | 0.17 | 77 | 1007.9 |
| 20260507125818 | 62 | 314 | 5.2 | 8.7 | 0.00 | 0.17 | 0.17 | 80 | 1007.7 |
| 20260507125315 | 62 | 349 | 5.2 | 7.0 | 0.00 | 0.17 | 0.17 | 79 | 1007.6 |
| 20260507124812 | 62 | 314 | 7.8 | 9.6 | 0.00 | 0.17 | 0.17 | 79 | 1007.6 |
| 20260507124308 | 62 | 351 | 6.1 | 11.3 | 0.00 | 0.17 | 0.17 | 78 | 1007.3 |
| 20260507123807 | 62 | 345 | 6.1 | 8.7 | 0.00 | 0.17 | 0.17 | 79 | 1007.5 |
| 20260507123304 | 62 | 341 | 7.0 | 7.8 | 0.00 | 0.17 | 0.17 | 80 | 1007.6 |
| 20260507122800 | 62 | 326 | 5.2 | 7.8 | 0.00 | 0.17 | 0.17 | 78 | 1007.5 |
| 20260507122255 | 62 | 340 | 6.1 | 7.8 | 0.00 | 0.17 | 0.17 | 78 | 1007.4 |
| 20260507121751 | 63 | 325 | 4.3 | 7.8 | 0.00 | 0.17 | 0.17 | 77 | 1007.2 |
| 20260507121247 | 63 | 21 | 7.0 | 8.7 | 0.00 | 0.17 | 0.17 | 77 | 1007.6 |
| 20260507120744 | 62 | 342 | 3.5 | 7.0 | 0.00 | 0.17 | 0.17 | 78 | 1007.4 |
| 20260507120241 | 63 | 352 | 2.6 | 6.1 | 0.00 | 0.17 | 0.17 | 78 | 1007.5 |